This is the latest recevied weather packets stored in our database for station/object W9LRT-WX. If no packets are shown the sender has not sent any weather packets the latest 1 day(s).
| Time | Temp. | Humidity | Pressure | Rain* | Wind** | Luminosity | Snow |
|---|---|---|---|---|---|---|---|
| 1777998982 | 8.89° C | 77% | 1007.9 hPa | 0 mm | 1.79 m/s, 276° | 396 W/m² | - |
| 1777998082 | 8.33° C | 77% | 1007.8 hPa | 0 mm | 1.79 m/s, 0° | 343 W/m² | - |
| 1777997183 | 7.78° C | 81% | 1007.7 hPa | 0 mm | 2.24 m/s, 336° | 325 W/m² | - |
| 1777996282 | 7.22° C | 82% | 1007.5 hPa | 0 mm | 1.34 m/s, 0° | 283 W/m² | - |
| 1777995382 | 7.22° C | 82% | 1007.4 hPa | 0 mm | 1.79 m/s, 0° | 174 W/m² | - |
| 1777994482 | 6.67° C | 81% | 1007.5 hPa | 0 mm | 2.68 m/s, 28° | 169 W/m² | - |
| 1777993582 | 7.78° C | 79% | 1007.6 hPa | 0 mm | 1.79 m/s, 48° | 104 W/m² | - |
| 1777992682 | 7.78° C | 77% | 1008 hPa | 0 mm | 1.34 m/s, 0° | 79 W/m² | - |
| 1777991782 | 8.33° C | 74% | 1008 hPa | 0 mm | 1.79 m/s, 319° | 51 W/m² | - |
| 1777990883 | 8.89° C | 70% | 1008.1 hPa | 0 mm | 1.79 m/s, 292° | 32 W/m² | - |
| 1777989984 | 9.44° C | 71% | 1007.5 hPa | 0 mm | 0.89 m/s, 320° | 44 W/m² | - |
| 1777989083 | 9.44° C | 70% | 1007.4 hPa | 0 mm | 1.79 m/s, 336° | 58 W/m² | - |
| 1777988182 | 9.44° C | 71% | 1007.1 hPa | 0 mm | 1.79 m/s, 292° | 49 W/m² | - |
| 1777987282 | 9.44° C | 73% | 1007.1 hPa | 0 mm | 0.89 m/s, 0° | 33 W/m² | - |
| 1777986382 | 10° C | 71% | 1006.9 hPa | 0 mm | 1.34 m/s, 303° | 35 W/m² | - |
| 1777985484 | 10° C | 70% | 1006.2 hPa | 0 mm | 1.79 m/s, 0° | 155 W/m² | - |
| 1777984587 | 10.56° C | 69% | 1005.2 hPa | 0 mm | 1.79 m/s, 306° | 172 W/m² | - |
| 1777983680 | 10.56° C | 71% | 1005.3 hPa | 0 mm | 1.34 m/s, 0° | 165 W/m² | - |
| 1777982783 | 10.56° C | 71% | 1004.5 hPa | 0 mm | 0.89 m/s, 344° | 151 W/m² | - |
| 1777981880 | 10.56° C | 73% | 1005 hPa | 0 mm | 0.45 m/s, 293° | 88 W/m² | - |
| 1777980981 | 10.56° C | 75% | 1004.6 hPa | 0 mm | 0 m/s | 111 W/m² | - |
| 1777980081 | 10° C | 74% | 1004.2 hPa | 0 mm | 0.89 m/s, 315° | 67 W/m² | - |
| 1777979178 | 10° C | 74% | 1003.9 hPa | 0 mm | 0.89 m/s, 338° | 19 W/m² | - |
| 1777978277 | 10.56° C | 72% | 1004.5 hPa | 0 mm | 1.79 m/s, 289° | 5 W/m² | - |
| 1777977380 | 11.11° C | 76% | 1004.4 hPa | 0 mm | 2.24 m/s, 327° | 0 W/m² | - |
* Rain latest hour (hover to see other rain measurements)
** Current wind speed in m/s (hover to see current wind gust speed)